{"data":{"norad_id":64732,"intl_designator":"2025-144J","name":"STARLINK-34596","alt_names":[],"object_type":"PAYLOAD","status":"ACTIVE","operator":null,"country":"US","launch_date":"2025-07-02","launch_site_code":"AFETR","launch_vehicle":null,"mission":null,"orbit_class":"UNKNOWN","rcs_meters":null,"size_class":null,"mass_kg":null,"dimensions":null,"purposes":["comms"],"wikipedia_slug":null,"has_3d_model":false,"image_url":null,"decayed_at":null,"tle_current":{"epoch":"2026-05-25T02:59:30.348384Z","epoch_age_seconds":74745,"freshness":"FRESH","line1":"1 64732U 25144J   26145.12465681  .00017929  00000+0  61589-3 0  9998","line2":"2 64732  53.1582 186.0635 0001276  86.5556 273.5591 15.30205237 51419","mean_motion":15.30205237,"eccentricity":0.0001276,"inclination_deg":53.1582,"raan_deg":186.0635,"arg_perigee_deg":86.5556,"mean_anomaly_deg":273.5591,"bstar":0.00061589,"rev_number":5141,"period_min":94.105023638734,"perigee_km":474.32494699708,"apogee_km":476.07391845471,"semimajor_km":6853.3364327259,"source":"CELESTRAK","updated_at":"2026-05-25T13:38:20.545242Z"}}}